TimeEDT,TemperatureF,Dew PointF,Humidity,Sea Level PressureIn,VisibilityMPH,Wind Direction,Wind SpeedMPH,Gust SpeedMPH,PrecipitationIn,Events,Conditions,WindDirDegrees,DateUTC
12:51 AM,37.0,23.0,57,29.85,10.0,NW,12.7,-,N/A,,Overcast,320,2013-03-21 04:51:00
1:51 AM,36.0,23.0,59,29.83,10.0,NNW,11.5,-,N/A,,Overcast,340,2013-03-21 05:51:00
2:51 AM,35.1,23.0,61,29.81,10.0,NNW,11.5,-,N/A,,Mostly Cloudy,340,2013-03-21 06:51:00
3:51 AM,34.0,23.0,64,29.80,10.0,NNW,13.8,-,N/A,,Mostly Cloudy,340,2013-03-21 07:51:00
4:51 AM,32.0,24.1,73,29.78,10.0,North,11.5,-,N/A,,Scattered Clouds,350,2013-03-21 08:51:00
5:51 AM,32.0,23.0,69,29.78,10.0,North,5.8,-,N/A,,Mostly Cloudy,360,2013-03-21 09:51:00
6:51 AM,33.1,21.0,61,29.78,10.0,North,15.0,-,N/A,,Overcast,350,2013-03-21 10:51:00
7:51 AM,33.1,17.1,52,29.78,10.0,North,18.4,-,N/A,,Mostly Cloudy,350,2013-03-21 11:51:00
8:51 AM,33.1,14.0,46,29.78,10.0,NNW,15.0,-,N/A,,Overcast,340,2013-03-21 12:51:00
9:51 AM,34.0,15.1,46,29.77,10.0,North,11.5,-,N/A,,Overcast,350,2013-03-21 13:51:00
10:51 AM,33.1,18.0,54,29.76,9.0,North,11.5,-,0.00,Snow,Light Snow,360,2013-03-21 14:51:00
11:51 AM,35.1,17.1,48,29.74,10.0,North,10.4,16.1,0.00,Snow,Light Snow,350,2013-03-21 15:51:00
12:51 PM,37.0,15.1,41,29.72,10.0,NW,15.0,19.6,0.00,,Overcast,320,2013-03-21 16:51:00
1:51 PM,34.0,15.1,46,29.70,9.0,NW,13.8,-,0.00,Snow,Light Snow,320,2013-03-21 17:51:00
2:05 PM,33.8,17.6,52,29.70,2.5,North,15.0,24.2,0.00,Snow,Light Snow,350,2013-03-21 18:05:00
2:17 PM,32.0,19.4,60,29.70,1.5,NW,10.4,-,0.00,Snow,Light Snow,310,2013-03-21 18:17:00
2:44 PM,32.0,21.2,64,29.69,3.0,North,9.2,-,0.00,Snow,Light Snow,10,2013-03-21 18:44:00
2:51 PM,30.9,21.0,67,29.69,3.0,North,5.8,-,0.00,Snow,Light Snow,10,2013-03-21 18:51:00
3:51 PM,33.1,21.9,64,29.67,3.0,NNW,4.6,-,0.00,Snow,Light Snow,330,2013-03-21 19:51:00
4:17 PM,33.8,19.4,56,29.66,10.0,NE,4.6,-,0.00,,Overcast,50,2013-03-21 20:17:00
4:51 PM,35.1,21.0,57,29.65,10.0,East,8.1,-,0.00,,Overcast,80,2013-03-21 20:51:00
5:51 PM,33.1,25.0,72,29.66,10.0,South,6.9,-,N/A,,Overcast,180,2013-03-21 21:51:00
6:51 PM,32.0,25.0,75,29.68,10.0,South,6.9,-,N/A,,Mostly Cloudy,190,2013-03-21 22:51:00
7:51 PM,32.0,25.0,75,29.68,10.0,South,6.9,-,N/A,,Mostly Cloudy,180,2013-03-21 23:51:00
8:51 PM,36.0,9.0,33,29.70,10.0,WNW,18.4,24.2,N/A,,Mostly Cloudy,300,2013-03-22 00:51:00
9:51 PM,34.0,8.1,34,29.72,10.0,WNW,20.7,28.8,N/A,,Mostly Cloudy,300,2013-03-22 01:51:00
10:51 PM,33.1,10.9,40,29.73,10.0,NW,20.7,25.3,N/A,,Scattered Clouds,310,2013-03-22 02:51:00
11:51 PM,33.1,10.0,38,29.74,10.0,NW,17.3,-,N/A,,Mostly Cloudy,310,2013-03-22 03:51:00